Location: Ch�risy
(50.2331°N, 2.9131°E)
Time: 02:40:11
(UTC+00:00)

Cosmos 2227 Rocket - Pass Details

Date: 17 January 2021
Orbit: 837 x 846 km, 71.0° (Epoch: 24 February)

Event Time Altitude Azimuth Distance (km) Brightness Sun altitude
Rises 17:01:55 0° 226° (SW) 3,389 6.9 -7.1°
Reaches altitude 10° 17:04:25 10° 231° (SW) 2,459 6.1 -7.5°
Maximum altitude 17:09:54 50° 307° (NW) 1,075 3.0 -8.3°
Drops below altitude 10° 17:15:25 10° 22° (NNE) 2,479 4.2 -9.1°
Enters shadow 17:17:20 - 27° (NNE) 3,181 4.8 -9.4°
